Overview Statistics Trail Chart Weather Telemetry Raw packets
 

This is the latest recevied weather packets stored in our database for station/object TONGUE. If no packets are shown the sender has not sent any weather packets the latest 10 day(s).

<< 8 9 10 11 12 13 14 >>
Time Temp. Humidity Pressure Rain* Wind** Luminosity Snow
1788409803 12.78° C 100% 0 hPa - - - -
1788409203 12.78° C 100% 0 hPa - - - -
1788406803 13.33° C 100% 0 hPa - - - -
1788405603 13.89° C 97% 0 hPa - - - -
1788405002 14.44° C 94% 0 hPa - - - -
1788404403 14.44° C 95% 0 hPa - - - -
1788403805 15° C 96% 0 hPa - - - -
1788403203 15° C 96% 0 hPa - - - -
1788402603 15.56° C 95% 0 hPa - - - -
1788402003 15.56° C 90% 0 hPa - - - -
1788401403 15.56° C 88% 0 hPa - - - -
1788400806 15.56° C 86% 0 hPa - - - -
1788400202 15.56° C 87% 0 hPa - - - -
1788399602 16.67° C 80% 0 hPa - - - -
1788399003 16.67° C 77% 0 hPa - - - -
1788398403 16.67° C 76% 0 hPa - - - -
1788397803 17.22° C 74% 0 hPa - - - -
1788397203 17.78° C 72% 0 hPa - - - -
1788396603 17.22° C 78% 0 hPa - - - -
1788396002 17.78° C 71% 0 hPa - - - -
1788395403 17.78° C 75% 0 hPa - - - -
1788394803 17.78° C 73% 0 hPa - - - -
1788394203 17.78° C 74% 0 hPa - - - -
1788393603 17.78° C 75% 0 hPa - - - -
1788393003 17.78° C 73% 0 hPa - - - -

* Rain since midnight (hover to see other rain measurements)
** Current wind speed in m/s (hover to see current wind gust speed)